Temperature
15 15 15 15 15 14 14 14 14 13 14 14 14 14 14 13 13 13 13 14 13 13 13 12 12 12 12 12 12 12 12 12 12 12 12 12 12 12 11 11 11 11 10
15 15 15 15 14 14 14 14 13 13 13 13 13 13 13 13 13 13 13 13 13 13 13 12 12 12 12 12 12 12 12 12 12 12 12 12 11 11 11 11 11 10 10
15 14 14 14 14 14 14 13 13 13 13 13 13 13 13 13 13 13 13 13 13 13 13 12 12 12 12 11 11 11 11 11 11 11 11 11 11 11 11 10 10 10 10
14 14 14 14 14 13 13 13 13 13 13 13 13 13 13 13 13 13 13 13 13 13 12 12 12 12 11 11 11 11 10 11 11 11 10 10 10 10 10 10 10 9 9
14 14 14 14 14 13 13 13 13 13 13 13 13 13 13 13 13 13 13 13 13 12 12 12 12 12 11 11 11 11 10 10 10 10 10 10 10 10 10 9 9 9 9
14 14 14 14 14 13 13 13 13 13 13 13 13 13 13 13 13 13 13 13 12 12 12 12 12 12 11 11 11 10 10 10 10 10 10 9 9 9 9 9 9 8 8
14 14 14 14 14 14 14 13 13 13 13 13 12 12 12 12 12 12 12 12 12 12 12 12 12 11 11 11 11 10 10 10 9 9 9 9 9 8 8 8 8 8 8
14 14 14 14 14 14 14 13 13 13 12 12 12 11 11 12 12 12 12 12 12 12 11 11 11 11 11 10 10 10 10 9 9 9 9 8 8 8 8 7 7 7 7
14 14 14 14 14 13 13 13 13 12 12 12 11 11 11 12 12 11 11 11 11 11 11 10 10 10 10 10 10 10 10 9 9 9 8 8 8 8 7 7 7 7 6
14 14 13 13 13 13 13 13 13 12 12 11 11 11 10 10 10 10 10 10 10 10 10 10 9 9 9 9 9 9 9 9 9 9 8 8 8 7 7 7 6 6 6
13 13 13 13 13 12 12 12 12 12 11 11 10 10 10 10 10 9 9 9 9 9 9 9 8 8 8 8 8 8 8 8 8 8 8 8 8 7 7 7 6 6 6
12 12 12 12 12 12 12 11 11 11 10 10 10 9 9 9 9 9 9 9 8 8 8 8 8 8 8 8 8 8 8 8 8 8 7 7 7 7 7 6 6 6 6
11 11 11 11 11 11 11 10 10 10 10 10 9 9 9 9 8 8 8 8 8 7 7 7 7 7 7 7 7 7 7 7 7 7 7 7 6 6 6 6 6 6 5
10 10 10 10 10 10 9 9 9 9 9 9 9 8 8 8 8 7 7 7 7 7 6 6 7 6 6 6 6 6 6 6 6 6 6 6 6 6 6 5 5 5 5
9 9 9 9 9 9 8 8 8 8 8 8 8 8 8 7 7 7 7 6 6 6 6 6 6 5 5 5 5 5 5 5 5 5 5 5 5 5 5 5 4 4 4
8 8 8 8 8 8 7 7 7 7 7 7 7 7 7 7 7 6 6 6 5 5 5 5 5 5 5 4 4 4 4 4 4 4 4 4 4 4 4 4 4 4 4
7 7 7 7 7 7 7 7 7 7 6 7 7 6 6 6 6 6 5 5 5 4 4 4 4 4 4 4 3 3 3 3 3 3 3 3 3 3 3 3 3 3 3
7 6 6 6 6 6 6 6 6 6 6 6 6 6 6 5 5 5 5 5 5 4 4 3 3 3 3 3 3 3 2 2 2 2 2 2 2 2 2 2 2 2 2
6 6 6 6 5 5 5 5 5 5 5 5 5 5 5 5 4 4 4 4 4 4 3 3 3 2 2 2 2 2 2 1 1 1 1 1 1 1 1 1 1 1 1
5 5 5 5 5 5 5 5 5 4 4 4 4 4 4 4 4 4 3 3 3 3 3 2 2 1 1 1 1 1 1 1 1 1 1 1 1 1 1 1 0 0 0
4 4 4 4 4 4 4 4 4 4 4 4 3 3 3 3 3 3 3 3 2 2 2 1 1 0 -0 -0 -0 -0 -1 -0 -0 -0 -0 -0 -0 -0 -0 -0 -0 -0 -0
3 3 3 3 3 3 3 3 3 3 3 3 3 3 2 2 2 2 2 2 2 1 1 0 -1 -1 -1 -2 -2 -1 -2 -2 -2 -2 -1 -1 -1 -1 -1 -1 -1 -1 -1
2 2 2 2 2 2 2 2 2 2 2 2 2 2 2 1 1 1 1 1 0 0 -0 -1 -2 -2 -2 -2 -2 -3 -3 -3 -3 -2 -2 -2 -2 -2 -2 -2 -2 -2 -2
1 1 1 1 1 1 1 2 2 2 2 1 1 1 1 1 1 0 0 -0 -1 -1 -1 -2 -2 -2 -3 -3 -3 -3 -3 -3 -3 -3 -3 -3 -3 -3 -3 -3 -2 -2 -3
1 1 1 1 1 1 1 1 1 1 1 1 1 1 0 0 -0 -0 -1 -1 -2 -2 -2 -2 -2 -3 -3 -3 -3 -4 -4 -4 -4 -4 -4 -4 -4 -3 -3 -3 -3 -3 -3
0 0 0 0 0 0 0 0 0 0 0 0 0 0 -0 -1 -1 -1 -2 -2 -2 -3 -3 -3 -3 -3 -3 -3 -4 -4 -4 -4 -5 -5 -5 -5 -4 -4 -4 -4 -4 -4 -4
Wind_Speed
5 5 5 5 6 5 5 5 6 5 6 6 6 7 8 8 8 8 7 9 12 12 12 12 11 10 10 10 9 8 7 6 6 5 4 4 3 2 2 2 1 2 2
6 5 6 6 6 6 6 6 7 6 6 6 7 8 9 9 9 10 10 9 13 15 15 15 14 13 13 13 12 11 10 9 9 8 7 7 6 5 4 3 3 2 1
7 7 6 6 7 7 7 7 7 7 7 7 8 9 9 10 10 11 11 10 11 14 18 18 17 16 16 15 15 14 13 13 12 11 10 9 8 8 7 6 5 4 3
9 8 7 7 8 7 7 6 6 7 7 7 8 8 8 8 11 12 11 11 11 11 13 18 19 19 18 18 17 16 16 15 15 14 13 12 11 10 9 8 7 6 5
9 9 8 8 8 7 7 6 7 7 8 8 8 8 8 8 10 10 12 13 12 12 12 12 17 20 20 19 19 19 18 17 17 16 16 15 14 13 12 11 10 9 8
8 9 8 9 8 7 7 7 8 8 8 8 7 8 9 10 9 10 11 11 11 11 12 12 11 13 18 20 20 20 20 19 18 18 18 17 16 15 15 14 13 12 10
7 8 7 8 7 7 8 9 8 8 7 6 5 7 9 10 10 9 8 8 8 9 9 10 9 10 10 13 17 19 20 20 19 19 19 19 18 17 17 16 15 14 13
6 6 7 6 6 7 9 9 8 6 5 5 5 5 6 7 8 7 6 5 6 6 6 7 7 8 9 8 9 13 16 18 19 19 19 20 20 20 19 18 17 16 15
4 5 6 6 6 6 7 8 8 9 8 7 7 7 6 6 4 4 5 4 4 4 4 4 5 6 7 8 8 9 11 15 18 19 20 20 21 21 21 20 19 18 17
2 3 4 5 5 5 6 7 7 7 8 8 6 8 9 7 6 5 4 4 3 4 4 3 5 5 6 6 7 9 10 12 15 18 19 19 19 20 21 21 20 19 18
1 2 3 3 4 4 5 6 6 7 7 8 7 6 7 7 8 7 8 6 4 3 3 3 4 5 6 6 6 8 10 11 13 15 17 17 17 17 17 18 18 17 16
0 2 3 2 3 3 4 4 5 6 5 7 7 6 6 6 6 7 8 7 6 4 2 2 4 5 6 7 7 11 10 11 12 14 15 15 14 13 12 13 14 14 13
0 2 3 3 3 3 3 3 3 3 4 4 5 4 4 4 4 5 6 6 5 3 2 1 4 5 6 7 8 12 9 10 11 11 11 11 10 8 7 6 8 10 10
1 2 2 2 3 3 3 2 1 1 2 1 1 2 1 2 2 2 2 3 4 4 3 0 3 6 7 7 10 10 8 11 10 9 8 7 5 3 2 3 3 5 5
1 2 2 2 3 3 3 2 2 2 2 3 3 3 3 3 3 3 2 1 3 4 3 1 2 5 7 7 10 9 9 11 11 9 8 8 8 6 5 3 3 3 4
1 1 2 2 3 3 3 3 3 3 4 4 4 5 5 4 4 4 3 2 1 2 2 2 3 4 6 6 9 8 9 10 11 11 10 10 9 8 8 7 6 6 6
2 2 2 3 3 3 4 4 4 5 5 6 6 6 6 5 4 4 3 3 2 1 2 1 2 4 5 5 6 8 9 9 10 13 12 11 10 9 8 7 6 5 4
2 2 3 3 4 4 4 5 6 6 6 7 6 6 6 5 6 5 4 4 3 3 1 1 1 2 4 4 5 6 7 7 8 11 11 10 9 8 7 6 5 4 2
3 3 3 4 4 5 5 6 6 7 7 7 7 7 6 6 6 5 5 4 3 3 2 1 1 2 2 3 3 4 5 5 6 7 8 8 8 7 6 4 4 3 2
4 4 4 5 5 5 5 6 6 7 7 7 7 7 7 6 6 5 5 5 4 3 3 2 2 1 2 2 2 3 3 4 4 5 5 5 5 5 4 4 3 3 4
4 4 5 5 5 4 4 5 6 6 6 7 7 7 8 8 9 7 5 4 4 3 2 2 1 1 2 2 3 3 3 3 2 3 4 4 4 3 3 3 4 5 6
5 5 5 5 5 4 6 6 6 5 5 6 6 5 6 6 8 9 9 8 7 4 3 2 1 1 2 2 3 3 3 3 2 3 5 4 3 3 3 4 5 7 7
5 5 5 5 5 6 7 7 7 5 5 4 4 4 3 4 4 4 6 6 7 8 5 2 1 2 2 2 3 3 3 4 4 4 5 4 3 3 3 4 6 8 8
5 5 5 5 5 6 7 7 7 5 4 4 3 2 2 2 3 2 3 3 3 4 4 3 2 2 2 2 2 3 3 4 4 2 3 3 4 4 4 5 3 5 5
5 5 4 4 4 5 5 6 5 3 3 3 2 1 1 1 3 1 1 1 1 2 3 3 4 3 3 3 3 2 3 3 3 2 2 3 4 5 5 3 2 3 4
6 5 4 4 4 4 5 6 5 2 2 2 1 1 0 2 1 0 1 1 1 1 1 1 1 0 0 1 1 2 2 3 3 2 1 3 3 4 4 3 3 4 6
Wind_Direction
227 227 233 233 238 242 239 245 252 257 261 263 260 262 264 261 261 260 258 239 243 250 255 254 250 241 238 240 237 232 229 227 225 220 216 209 201 190 174 156 133 113 96
234 237 240 239 242 241 245 251 256 263 266 265 267 264 264 264 261 260 262 252 239 242 247 251 251 248 242 240 238 234 231 229 228 225 222 219 216 213 210 205 194 181 161
236 239 245 244 244 243 246 252 259 263 266 266 266 266 265 264 263 263 260 260 255 241 239 244 248 249 247 244 242 237 232 230 228 227 225 222 220 219 218 215 212 210 207
237 241 245 248 249 247 245 248 255 256 257 259 265 267 264 263 264 265 263 257 257 256 245 238 243 248 250 247 245 242 236 230 227 226 225 224 222 221 221 219 219 219 219
237 238 245 251 251 245 244 246 250 253 261 261 264 269 269 267 267 265 263 262 258 257 261 249 239 244 248 250 249 247 244 236 229 226 225 225 224 222 221 221 221 223 225
238 240 246 252 252 246 246 243 246 247 257 269 273 271 271 269 265 263 265 266 262 259 262 266 258 250 244 248 252 252 251 246 237 230 226 225 224 223 222 222 220 221 224
242 239 247 252 246 246 250 251 251 254 254 255 263 272 268 261 260 260 260 266 266 266 266 267 267 268 262 248 249 253 255 254 248 238 231 227 224 224 223 222 223 222 222
248 247 249 252 248 251 255 254 247 249 250 232 243 272 280 275 249 243 251 257 270 272 272 276 275 273 275 273 265 258 259 260 258 251 241 232 226 224 223 223 223 223 223
259 258 261 262 260 255 257 256 251 249 256 247 231 246 266 271 291 238 239 249 264 273 282 292 289 287 284 280 281 275 269 266 266 263 257 247 235 228 225 225 223 222 221
283 285 280 274 269 263 263 264 258 255 257 258 246 238 252 270 270 275 244 245 261 278 292 300 304 304 301 296 292 295 293 282 275 270 268 262 249 237 230 227 226 224 223
14 344 317 293 281 275 271 270 267 259 255 257 256 250 248 251 249 258 270 266 258 260 290 310 316 324 330 323 318 329 322 300 287 280 275 271 261 251 243 235 227 223 221
19 11 350 327 309 296 286 281 275 270 267 264 263 260 256 253 250 251 263 270 270 272 300 335 351 359 357 347 349 351 334 319 304 293 284 277 271 266 264 251 232 222 217
293 356 352 343 335 326 316 304 287 284 284 275 271 269 272 277 280 271 272 277 276 275 268 30 35 20 11 1 359 351 346 340 324 309 297 291 287 283 277 282 246 218 210
349 353 354 356 352 346 339 332 330 336 334 317 322 306 296 338 334 306 285 279 273 259 249 230 57 31 16 9 4 356 359 1 349 338 329 328 335 338 331 320 259 202 193
27 8 6 11 14 11 7 16 43 43 53 49 45 48 53 38 29 24 11 312 269 267 257 59 48 24 13 12 8 7 9 8 7 7 19 33 43 45 39 49 91 138 150
64 49 41 39 40 39 43 60 69 67 74 64 60 66 61 49 45 35 32 26 355 269 253 71 38 11 12 16 16 18 18 16 21 31 44 48 54 55 57 66 80 95 108
83 74 68 65 60 59 63 74 77 79 83 76 68 69 64 55 55 44 40 39 33 341 244 110 52 21 20 19 16 23 27 28 34 41 47 53 57 61 64 69 75 80 82
91 87 89 84 76 71 75 84 84 82 84 82 76 75 70 65 61 52 49 49 42 20 340 160 62 28 28 21 18 24 26 30 32 37 40 44 48 50 53 54 59 70 71
102 96 97 92 87 83 83 84 88 88 85 81 77 74 69 67 63 56 52 49 44 40 40 108 93 43 35 20 15 21 25 23 26 27 33 37 38 37 35 34 37 34 10
115 106 99 96 94 92 90 92 94 94 89 82 74 70 65 63 61 57 51 45 41 53 65 86 87 53 34 16 7 6 8 12 11 15 17 11 7 7 9 2 349 332 309
118 114 110 106 102 97 97 105 103 101 98 91 80 70 62 58 56 53 48 40 37 43 58 74 76 59 34 15 9 1 348 345 5 4 340 343 336 328 325 326 323 314 298
125 119 114 112 105 100 106 106 109 107 101 95 88 77 69 62 61 60 56 50 42 42 49 52 57 48 32 16 5 356 346 338 329 5 333 323 323 315 324 326 332 316 299
135 126 119 116 109 108 112 109 105 105 101 94 91 85 73 63 55 59 63 63 58 52 39 18 39 31 15 2 349 339 346 330 317 337 328 310 321 310 317 313 319 310 296
144 138 133 129 122 118 121 120 116 109 107 101 92 83 79 67 57 46 51 55 55 52 41 31 35 19 1 349 335 317 314 303 294 307 322 299 322 316 315 307 326 324 308
154 152 149 146 142 138 138 143 141 134 128 121 104 71 38 49 76 71 50 46 45 66 64 43 32 27 18 3 339 311 316 312 306 317 346 306 320 319 307 295 296 304 310
162 158 158 165 170 171 164 167 175 169 170 169 174 179 349 356 63 8 309 304 317 353 334 296 280 231 298 47 350 316 308 297 298 301 11 321 316 327 310 297 296 288 280
Height
1573 1574 1574 1574 1574 1575 1575 1575 1575 1575 1574 1573 1573 1572 1572 1572 1571 1570 1569 1568 1567 1566 1566 1565 1564 1563 1562 1562 1561 1560 1559 1558 1558 1557 1557 1556 1556 1555 1555 1555 1554 1554 1554
1571 1572 1572 1573 1573 1573 1573 1573 1573 1572 1572 1571 1571 1570 1569 1569 1568 1567 1566 1565 1564 1564 1563 1563 1562 1561 1560 1560 1559 1558 1557 1557 1556 1555 1555 1555 1554 1554 1554 1554 1554 1554 1553
1570 1570 1571 1571 1571 1571 1571 1570 1570 1570 1570 1569 1568 1568 1567 1566 1565 1564 1563 1562 1561 1561 1560 1560 1559 1558 1558 1557 1556 1555 1555 1554 1554 1553 1553 1553 1552 1552 1552 1552 1552 1552 1553
1568 1568 1568 1569 1569 1569 1568 1568 1568 1567 1567 1566 1566 1565 1564 1563 1562 1561 1560 1559 1558 1557 1556 1556 1555 1555 1554 1554 1553 1553 1552 1551 1551 1551 1550 1550 1550 1550 1550 1550 1551 1551 1551
1565 1565 1566 1566 1566 1566 1565 1565 1565 1564 1564 1563 1562 1561 1560 1559 1558 1557 1556 1555 1554 1553 1553 1551 1551 1550 1550 1549 1549 1549 1548 1548 1547 1547 1547 1547 1547 1547 1547 1548 1548 1549 1549
1562 1562 1562 1563 1563 1562 1562 1562 1561 1560 1560 1559 1558 1557 1556 1555 1553 1552 1552 1551 1550 1549 1548 1547 1546 1545 1545 1545 1544 1544 1544 1544 1543 1543 1543 1543 1543 1543 1544 1544 1545 1545 1546
1558 1558 1558 1558 1558 1558 1558 1557 1557 1556 1555 1554 1553 1551 1550 1549 1548 1547 1547 1546 1545 1544 1543 1542 1541 1540 1539 1539 1539 1539 1539 1539 1539 1539 1538 1538 1539 1539 1540 1540 1541 1541 1542
1554 1554 1554 1554 1553 1553 1553 1552 1551 1550 1550 1550 1549 1548 1546 1546 1543 1542 1542 1541 1541 1540 1539 1538 1537 1535 1534 1534 1533 1533 1533 1533 1533 1533 1533 1533 1533 1534 1535 1535 1536 1537 1538
1549 1549 1549 1548 1548 1548 1547 1547 1546 1545 1544 1544 1544 1544 1543 1541 1540 1538 1538 1537 1537 1536 1535 1533 1532 1531 1530 1529 1528 1527 1527 1527 1527 1528 1528 1528 1528 1528 1528 1529 1530 1531 1533
1544 1544 1544 1543 1542 1542 1541 1541 1540 1539 1539 1538 1538 1538 1538 1537 1537 1534 1534 1533 1532 1531 1530 1529 1528 1526 1525 1524 1523 1522 1522 1522 1521 1522 1522 1522 1522 1523 1523 1523 1524 1525 1527
1539 1538 1538 1538 1537 1536 1535 1535 1534 1534 1533 1533 1532 1532 1532 1531 1531 1530 1529 1529 1528 1527 1526 1525 1523 1522 1521 1519 1518 1517 1516 1516 1516 1516 1516 1516 1517 1517 1517 1517 1518 1519 1521
1533 1533 1532 1532 1531 1530 1530 1529 1528 1528 1527 1527 1527 1526 1526 1526 1525 1525 1524 1523 1523 1522 1521 1520 1519 1518 1516 1515 1513 1512 1511 1511 1510 1510 1510 1510 1511 1511 1512 1512 1512 1513 1515
1528 1528 1527 1527 1526 1525 1524 1524 1523 1522 1522 1521 1521 1521 1521 1520 1520 1520 1519 1519 1518 1517 1517 1516 1514 1513 1512 1511 1509 1508 1507 1506 1505 1505 1505 1505 1505 1506 1506 1507 1508 1509 1510
1524 1523 1523 1522 1521 1520 1520 1519 1518 1518 1517 1517 1516 1516 1515 1515 1515 1515 1515 1515 1514 1513 1513 1512 1510 1509 1508 1507 1505 1504 1503 1502 1501 1500 1500 1500 1500 1500 1501 1502 1503 1504 1505
1520 1519 1518 1518 1517 1516 1515 1515 1514 1513 1513 1512 1512 1511 1511 1510 1510 1510 1510 1510 1511 1510 1509 1508 1507 1506 1504 1503 1502 1500 1499 1498 1497 1497 1496 1496 1496 1497 1497 1498 1499 1500 1501
1516 1515 1514 1514 1513 1512 1511 1511 1510 1509 1509 1508 1508 1507 1507 1507 1506 1506 1506 1506 1506 1506 1506 1504 1503 1502 1501 1500 1498 1497 1496 1495 1494 1494 1494 1494 1494 1494 1494 1495 1496 1497 1498
1512 1512 1511 1510 1509 1509 1508 1507 1506 1506 1506 1505 1505 1504 1504 1504 1503 1503 1503 1502 1502 1502 1502 1501 1500 1499 1498 1497 1496 1495 1494 1493 1492 1492 1492 1491 1491 1492 1492 1492 1493 1493 1494
1509 1508 1508 1507 1506 1506 1505 1504 1504 1503 1503 1503 1502 1502 1502 1501 1501 1500 1500 1499 1499 1499 1499 1498 1497 1496 1495 1494 1493 1492 1492 1491 1491 1490 1490 1490 1490 1489 1489 1490 1490 1490 1491
1506 1505 1505 1504 1504 1503 1503 1502 1502 1501 1501 1500 1500 1500 1499 1499 1499 1498 1498 1497 1497 1496 1496 1496 1495 1494 1493 1492 1491 1490 1490 1489 1489 1488 1488 1487 1487 1487 1487 1487 1487 1487 1487
1503 1503 1502 1502 1501 1501 1501 1500 1500 1499 1499 1498 1498 1498 1498 1497 1497 1496 1496 1495 1495 1494 1494 1493 1493 1492 1491 1490 1489 1489 1488 1487 1486 1486 1485 1485 1484 1484 1483 1483 1483 1482 1482
1501 1500 1500 1500 1500 1499 1499 1498 1498 1498 1497 1497 1497 1497 1496 1496 1495 1495 1494 1493 1493 1492 1492 1491 1490 1490 1489 1488 1487 1486 1486 1485 1484 1483 1483 1482 1481 1480 1480 1479 1479 1478 1478
1498 1498 1498 1498 1498 1498 1497 1497 1497 1497 1496 1496 1496 1495 1495 1494 1493 1493 1492 1492 1491 1491 1490 1489 1489 1488 1487 1486 1486 1485 1484 1484 1483 1482 1480 1479 1478 1477 1476 1476 1475 1474 1474
1496 1497 1497 1497 1497 1496 1496 1496 1496 1496 1495 1495 1494 1494 1493 1493 1492 1491 1490 1490 1489 1488 1488 1488 1487 1486 1485 1485 1484 1483 1482 1482 1481 1479 1478 1477 1476 1475 1473 1472 1472 1471 1471
1495 1495 1495 1495 1495 1495 1495 1495 1495 1495 1494 1494 1493 1493 1492 1492 1491 1490 1489 1488 1487 1487 1486 1485 1485 1484 1484 1483 1482 1482 1481 1480 1479 1478 1476 1475 1474 1472 1471 1470 1468 1468 1467
1493 1493 1494 1494 1494 1494 1494 1494 1494 1493 1493 1493 1492 1492 1491 1490 1489 1488 1488 1487 1486 1485 1485 1484 1483 1483 1482 1481 1481 1480 1479 1478 1477 1476 1474 1473 1471 1470 1468 1467 1466 1465 1465
1491 1492 1492 1493 1493 1493 1493 1493 1493 1492 1492 1491 1491 1490 1489 1489 1488 1487 1487 1486 1485 1485 1484 1483 1482 1481 1480 1479 1479 1478 1477 1476 1475 1474 1472 1471 1469 1468 1466 1465 1464 1463 1462